Changkengkou, Taiwan

7:29 AM CST on February 25, 2017 (GMT +0800)
Taiwan Taoyuan International

Weather History for RCTP - March, 2013

Change the Weather History Date:

Tuesday, March 5, 2013

  Actual Average Record
Temperature  
Mean Temperature 67 °F -  
Max Temperature 75 °F 66 °F 82 °F (2002)
Min Temperature 59 °F 55 °F 42 °F (2005)
Cooling Degree Days 2    
Growing Degree Days 17 (Base 50)    
Moisture  
Dew Point 43 °F    
Average Humidity 44    
Maximum Humidity 59    
Minimum Humidity 31    
Precipitation  
Precipitation 0.00 in - - ()
Sea Level Pressure  
Sea Level Pressure 30.19 in    
Wind  
Wind Speed 17 mph ()    
Max Wind Speed 24 mph    
Max Gust Speed 33 mph    
Visibility 6.2 miles    
Events      
Averages and records for this station are not official NWS values.
T = Trace of Precipitation, MM = Missing Value Source: Averaged Metar Reports

Daily Weather History Graph

Daily Weather History Graph

Search for Another Location

Airport or City:

Trip Planner

Search our weather history database for the weather conditions in past years. The results will help you decide how hot, cold, wet, or windy it might be!

Date:

Astronomy

Mar. 05, 2013 Rise Set
Actual Time 6:14 AM CST 5:59 PM CST
Civil Twilight 5:51 AM CST 6:22 PM CST
Nautical Twilight 5:25 AM CST 6:48 PM CST
Astronomical Twilight 4:58 AM CST 7:15 PM CST
Moon 12:25 AM CST (3/5) 11:29 AM CST (3/5)
Length of Visible Light 12h 30m
Length of Day
11h 44m
Waning Gibbous, 47% of the Moon is Illuminated
Mar 5
Waning Gibbous
Mar 12
New
Mar 20
First Quarter
Mar 27
Full
Apr 3
Last Quarter

Hourly Weather History & Observations

Time (CST) Temp. Dew Point Humidity Pressure Visibility Wind Dir Wind Speed Gust Speed Precip Events Conditions
12:00 AM 60.8 °F 42.8 °F 52% 30.24 in 6.2 mi ENE 18.4 mph - N/A   Mostly Cloudy
12:30 AM 60.8 °F 44.6 °F 55% 30.24 in 6.2 mi ENE 16.1 mph - N/A   Mostly Cloudy
1:00 AM 59.0 °F 44.6 °F 59% 30.24 in 6.2 mi ENE 17.3 mph - N/A   Mostly Cloudy
1:30 AM 59.0 °F 44.6 °F 59% 30.24 in 6.2 mi ENE 15.0 mph - N/A   Mostly Cloudy
2:00 AM 59.0 °F 44.6 °F 59% 30.21 in 6.2 mi ENE 17.3 mph - N/A   Mostly Cloudy
3:00 AM 59.0 °F 42.8 °F 55% 30.21 in 6.2 mi ENE 18.4 mph - N/A   Scattered Clouds
3:30 AM 59.0 °F 42.8 °F 55% 30.21 in 6.2 mi ENE 20.7 mph - N/A   Partly Cloudy
4:00 AM 59.0 °F 44.6 °F 59% 30.21 in 6.2 mi ENE 16.1 mph - N/A   Partly Cloudy
4:30 AM 59.0 °F 42.8 °F 55% 30.21 in 6.2 mi ENE 17.3 mph - N/A   Partly Cloudy
5:00 AM 59.0 °F 42.8 °F 55% 30.21 in 6.2 mi ENE 17.3 mph - N/A   Scattered Clouds
5:30 AM 59.0 °F 42.8 °F 55% 30.21 in 6.2 mi NE 16.1 mph - N/A   Scattered Clouds
6:00 AM 60.8 °F 42.8 °F 52% 30.21 in 6.2 mi ENE 21.9 mph - N/A   Mostly Cloudy
6:30 AM 60.8 °F 42.8 °F 52% 30.21 in 6.2 mi ENE 19.6 mph - N/A   Mostly Cloudy
7:00 AM 60.8 °F 42.8 °F 52% 30.24 in 6.2 mi ENE 18.4 mph 29.9 mph N/A   Mostly Cloudy
7:30 AM 62.6 °F 41.0 °F 45% 30.24 in 6.2 mi East 17.3 mph - N/A   Mostly Cloudy
8:00 AM 64.4 °F 41.0 °F 42% 30.24 in 6.2 mi East 21.9 mph - N/A   Mostly Cloudy
8:30 AM 66.2 °F 41.0 °F 40% 30.24 in 6.2 mi East 20.7 mph - N/A   Mostly Cloudy
9:00 AM 66.2 °F 41.0 °F 40% 30.24 in 6.2 mi East 21.9 mph 33.4 mph N/A   Mostly Cloudy
9:30 AM 68.0 °F 41.0 °F 37% 30.24 in 6.2 mi East 24.2 mph - N/A   Mostly Cloudy
10:00 AM 68.0 °F 42.8 °F 40% 30.24 in 6.2 mi East 21.9 mph 33.4 mph N/A   Mostly Cloudy
10:30 AM 69.8 °F 41.0 °F 35% 30.24 in 6.2 mi East 21.9 mph - N/A   Mostly Cloudy
11:00 AM 69.8 °F 41.0 °F 35% 30.24 in 6.2 mi East 21.9 mph - N/A   Mostly Cloudy
11:30 AM 71.6 °F 41.0 °F 33% 30.21 in 6.2 mi East 19.6 mph - N/A   Mostly Cloudy
12:00 PM 73.4 °F 42.8 °F 33% 30.21 in 6.2 mi East 19.6 mph - N/A   Mostly Cloudy
12:30 PM 73.4 °F 44.6 °F 36% 30.18 in 6.2 mi East 19.6 mph - N/A   Mostly Cloudy
1:00 PM 75.2 °F 44.6 °F 34% 30.18 in 6.2 mi East 17.3 mph 28.8 mph N/A   Scattered Clouds
1:30 PM 73.4 °F 44.6 °F 36% 30.15 in 6.2 mi East 18.4 mph - N/A   Scattered Clouds
2:00 PM 73.4 °F 44.6 °F 36% 30.15 in 6.2 mi East 19.6 mph - N/A   Scattered Clouds
2:30 PM 75.2 °F 42.8 °F 31% 30.15 in 6.2 mi East 19.6 mph - N/A   Scattered Clouds
3:00 PM 73.4 °F 42.8 °F 33% 30.15 in 6.2 mi East 17.3 mph - N/A   Scattered Clouds
3:30 PM 73.4 °F 41.0 °F 31% 30.15 in 6.2 mi East 17.3 mph - N/A   Scattered Clouds
4:00 PM 73.4 °F 41.0 °F 31% 30.12 in 6.2 mi East 17.3 mph - N/A   Scattered Clouds
4:30 PM 71.6 °F 41.0 °F 33% 30.12 in 6.2 mi East 19.6 mph 31.1 mph N/A   Scattered Clouds
5:00 PM 71.6 °F 42.8 °F 35% 30.15 in 6.2 mi East 16.1 mph - N/A   Scattered Clouds
5:30 PM 69.8 °F 42.8 °F 38% 30.15 in 6.2 mi East 16.1 mph - N/A   Scattered Clouds
6:00 PM 68.0 °F 42.8 °F 40% 30.15 in 6.2 mi East 15.0 mph 26.5 mph N/A   Mostly Cloudy
6:30 PM 68.0 °F 44.6 °F 43% 30.15 in 6.2 mi East 13.8 mph - N/A   Mostly Cloudy
7:00 PM 68.0 °F 44.6 °F 43% 30.15 in 6.2 mi East 17.3 mph - N/A   Mostly Cloudy
7:30 PM 66.2 °F 44.6 °F 46% 30.15 in 6.2 mi East 17.3 mph 28.8 mph N/A   Scattered Clouds
8:00 PM 66.2 °F 44.6 °F 46% 30.18 in 6.2 mi East 17.3 mph - N/A   Scattered Clouds
8:30 PM 66.2 °F 44.6 °F 46% 30.18 in 6.2 mi East 18.4 mph - N/A   Scattered Clouds
9:00 PM 66.2 °F 44.6 °F 46% 30.18 in 6.2 mi East 16.1 mph - N/A   Scattered Clouds
9:30 PM 66.2 °F 44.6 °F 46% 30.18 in 6.2 mi East 17.3 mph - N/A   Scattered Clouds
10:00 PM 66.2 °F 44.6 °F 46% 30.18 in 6.2 mi ESE 12.7 mph 25.3 mph N/A   Scattered Clouds
10:30 PM 66.2 °F 44.6 °F 46% 30.15 in 6.2 mi ESE 13.8 mph - N/A   Scattered Clouds
11:00 PM 66.2 °F 44.6 °F 46% 30.15 in 6.2 mi ESE 12.7 mph - N/A   Scattered Clouds
11:30 PM 66.2 °F 44.6 °F 46% 30.15 in 6.2 mi ESE 11.5 mph 24.2 mph N/A   Scattered Clouds